Preview of NWS' New Version of Forecast
This preview is not operational and should not be used for support decisions.

Regional Weather Roundup (RWR)

Issued by National Weather Service (NWS)

                            
000
ASUS42 KTBW 202317
RWRFL 
FLORIDA REGIONAL WEATHER ROUNDUP
NATIONAL WEATHER SERVICE TAMPA BAY RUSKIN FL
600 PM EST WED FEB 20 2019

NOTE: "FAIR" INDICATES FEW OR NO CLOUDS BELOW 12,000 FEET WITH NO
SIGNIFICANT WEATHER AND/OR OBSTRUCTIONS TO VISIBILITY.

FLZ001>010-012>015-112-114-115-210000-
PANHANDLE FLORIDA
  
CITY           SKY/WX    TMP DP  RH WIND       PRES   REMARKS
PENSACOLA      FOG       70  68  93 SE12      29.95S VSB 1/2          
PENSACOLA NAS  FOG       68  68 100 S8        29.95R VSB 1/4          
MILTON NAS     CLOUDY    72  71  97 S16       29.96  FOG              
CRESTVIEW      CLOUDY    70  69  97 S9        29.99S FOG              
DUKE FIELD     FOG       69  69 100 S9        29.98S VSB 1/4          
VALPARAISO     LGT RAIN  68  68 100 SE8       29.97S VSB 1/4          
MARY ESTHER    FOG       68  67  97 SE12      29.96R VSB 1/4          
PANAMA CITY    CLOUDY    69  67  93 SE9       30.01R FOG              
TYNDALL AFB    FOG       70  68  94 SE17      30.01R VSB 3/8          
APALACHICOLA   FOG       67  66  97 SE10      30.02S VSB 1/4          

STATION/POSITION SKY/WX   TEMP    WIND        PRES    WAVE   SWELL
                          AIR SEA DIR/SP/G            HT/PER HT/PER
                          (F)     (DEG/KT/KT) (MB)    (FT/S) (FT/S)
30.1N   87.6W              68     150/ 10/ 12 1014.1    4/ 6   3/ 6
29.2N   88.2W                     170/ 10/ 14 1014.2R   5/ 7   5/ 7
PANAMA CITY BEAC           64 63  120/ 12/ 13 1016.1R
TOWER C                    68     170/ 17/ 18 1016.7R

$$
FLZ011-016>038-118-127-128-134-139-239-210000-
NORTH FLORIDA
  
CITY           SKY/WX    TMP DP  RH WIND       PRES   REMARKS
MARIANNA       MOCLDY    74  69  85 SE7       30.01R                  
TALLAHASSEE    CLOUDY    73  70  90 S5        30.05R                  
PERRY          MOCLDY    76  70  81 SW8       30.07R                  
LIVE OAK       PTCLDY    79  66  65 SW7G13    30.06R                  
CROSS CITY     FAIR      77  70  79 SW8       30.06S                  
LAKE CITY      CLOUDY    79  63  57 SW10G17   30.07R                  
GAINESVILLE    MOCLDY    83  67  58 SW8       30.08R                  
WILLISTON        N/A    N/A N/A N/A MISG        N/A                   
PALATKA        MOCLDY   N/A N/A N/A CALM      30.05S                  
MAYPORT NAS    MOCLDY    69  66  90 SE14      30.07R                  
JACKSONVILLE   LGT RAIN  70  68  93 NE7       30.06S                  
JAX NAS        HVY RAIN  75  73  93 W10       30.08R FOG              
JAX CECIL      MOCLDY    79  72  78 N8        30.05R                  
FERNANDINA BEA CLOUDY    67  65  93 W3        30.08R                  
ST AUGUSTINE   MOCLDY    72  67  84 S15       30.07S                  
PALM COAST     MOCLDY    75  70  83 SE7       30.07R                  

STATION/POSITION SKY/WX   TEMP    WIND        PRES    WAVE   SWELL
                          AIR SEA DIR/SP/G            HT/PER HT/PER
                          (F)     (DEG/KT/KT) (MB)    (FT/S) (FT/S)
SHELL POINT      NOT AVBL
KEATON BEACH               71     160/ 11/ 13 1017.9S
CEDAR KEY        NOT AVBL
FERNANDINA                    63  340/  3/  4 1019.5R
30.7N   81.3W                 59                N/A     5/ 8   2/11
MAYPORT                       62  160/  6/ 11 1018.2R
31.4N   80.9W              60 59   30/  8/  8 1019.3R   6/ 9   5/ 9
ST AUGUSTINE               64 62  170/ 11/ 11 1018.4R

$$
FLZ040-043>046-052-053-057-058-063-144-210000-
INTERIOR CENTRAL FLORIDA
  
CITY           SKY/WX    TMP DP  RH WIND       PRES   REMARKS
OCALA          MOCLDY    79  68  69 VRB7      30.06R                  
LEESBURG       FAIR      80  67  64 CALM      30.05S                  
SANFORD        FAIR      79  71  76 E10       30.05R                  
ORLANDO EXEC   MOCLDY    83  67  58 SE9       30.05R                  
ORLANDO INTL   FAIR      81  65  58 S8        30.06R                  
KISSIMMEE      CLOUDY    80  68  66 S8        30.07R                  
WINTER HAVEN   MOCLDY    84  67  56 S7        30.06R                  
LAKELAND       CLOUDY    81  66  61 S6        30.06R                  
BARTOW         CLOUDY    81  68  65 SE7       30.05R                  
SEBRING        MOCLDY    81  64  55 SE12      30.06R                  
OKEECHOBEE     FAIR      81  64  57 SE9G16    30.06R                  

$$
FLZ041-047-054-059-064-141-147-210000-
EAST CENTRAL FLORIDA
  
CITY           SKY/WX    TMP DP  RH WIND       PRES   REMARKS
ORMOND BEACH   PTCLDY    73  73 100 SE6       30.07R                  
DAYTONA BEACH  FAIR      76  70  82 SE5       30.07R                  
DELAND         FAIR      79  70  73 SE6       30.06R                  
NEW SMYRNA BEA PTCLDY    77  68  73 SE12G21   30.08R                  
JFK SPACE CTR  FAIR     N/A N/A N/A S14G21    30.08S                  
TITUSVILLE     CLEAR     79  70  73 SE16      30.08R                  
CAPE CANAVERAL FAIR      72  69  89 SE13      30.07R                  
PATRICK AFB    FAIR      71  70  98 SE12      30.08R                  
MELBOURNE      FAIR      77  69  76 SE15      30.07R                  
VERO BEACH     FAIR      77  69  76 SE16      30.08R                  
FT PIERCE      FAIR      78  68  71 SE16      30.08R                  
STUART         PTCLDY    77  68  73 SE16G29   30.09S                  

STATION/POSITION SKY/WX   TEMP    WIND        PRES    WAVE   SWELL
                          AIR SEA DIR/SP/G            HT/PER HT/PER
                          (F)     (DEG/KT/KT) (MB)    (FT/S) (FT/S)
28.5N   80.2W              72     140/ 12/ 14 1019.2R   7/ 9   5/ 9
28.9N   78.5W              75 78  160/ 17/ 23 1020.8R   9/ 8
TRIDENT PIER                  70  120/  8/ 11 1019.6R
28.4N   80.5W                 68                N/A     4/ 9   2/11

$$
FLZ050-056-061-142-242-148-248-149-249-151-251-155-255-
160-260-210000-
WEST CENTRAL FLORIDA
  
CITY           SKY/WX    TMP DP  RH WIND       PRES   REMARKS
CRYSTAL RIVER  FAIR      77  68  73 SW5       30.06S                  
INVERNESS      MOCLDY    79  72  78 CALM      30.06R                  
BROOKSVILLE    FAIR      81  68  64 SW12      30.06R                  
CLEARWATER AIR CLOUDY    77  64  65 S9        30.06R                  
ST PETE CLEARW CLOUDY    79  65  62 S13       30.05R                  
TAMPA INTL     MOCLDY    79  67  66 SW10      30.06R                  
TAMPA EXEC     CLOUDY    77  72  83 SW3       30.06R                  
PLANT CITY     CLOUDY    84  66  54 S9        30.07S                  
MACDILL AFB    CLOUDY    75  69  80 SW9       30.05R                  
PETER O KNIGHT CLOUDY    79  70  73 SW5       30.06R                  
ST PETERSBURG  MOCLDY    79  67  66 SW13      30.03S                  
SARASOTA       MOCLDY    81  68  64 S13       30.03S                  
VENICE         MOCLDY    79  70  73 S12       30.06R                  

STATION/POSITION SKY/WX   TEMP    WIND        PRES    WAVE   SWELL
                          AIR SEA DIR/SP/G            HT/PER HT/PER
                          (F)     (DEG/KT/KT) (MB)    (FT/S) (FT/S)
27.3N   84.2W                 72                N/A     4/ 6
CLEARWATER BEACH           75 71  180/ 14/ 16 1017.9R
MIDDLE TAMPA BAY                  210/ 13/ 17 1017.5R
VENICE                     76 70  170/ 12/ 14   N/A

$$
FLZ066-069-070-075>078-162-262-165-265-210000-
SOUTHWEST FLORIDA AND KEYS
  
CITY           SKY/WX    TMP DP  RH WIND       PRES   REMARKS
PUNTA GORDA    FAIR      78  68  71 SW8       30.06S                  
FT MYERS       FAIR      78  68  71 SW6       30.04R                  
SOUTHWEST INTL FAIR      78  69  73 W8        30.04R                  
NAPLES         FAIR      80  68  66 S12       30.03S                  
MARCO ISLAND   FAIR     N/A N/A N/A S12       30.05S                  
IMMOKALEE      FAIR      81  64  57 SE8       30.02S                  
MARATHON       FAIR      82  70  66 E9        30.03S                  
KEY WEST NAS   FAIR      80  70  71 E17       30.03R                  
KEY WEST INTL  FAIR      80  69  69 SE15      30.03S                  

STATION/POSITION SKY/WX   TEMP    WIND        PRES    WAVE   SWELL
                          AIR SEA DIR/SP/G            HT/PER HT/PER
                          (F)     (DEG/KT/KT) (MB)    (FT/S) (FT/S)
NAPLES                        74  150/  3/ 11 1017.1R
26.0N   85.6W              79 80  140/ 12/ 16 1015.7R   4/ 7   3/ 7
DRY TORTUGAS               78     130/ 15/ 17 1016.4R
SAND KEY                   78                 1016.6S
SOMBRERO KEY               78                 1016.4S
LONG KEY                   78 79  100/ 14/ 16 1017.2R
MOLASSES REEF              78 78  130/ 13/ 15 1018.1R

$$
FLZ067-068-071>074-168-172>174-210000-
SOUTHEAST FLORIDA 
  
CITY           SKY/WX    TMP DP  RH WIND       PRES   REMARKS
W PALM BEACH   FAIR      78  67  68 SE14      30.08S                  
BOCA RATON     CLEAR     79  68  69 SE9       30.08S                  
FT LAUDER-EXEC FAIR      79  69  71 SE12      30.07S                  
FT LAUDERDALE  FAIR      78  71  79 SE10      30.07S                  
POMPANO BEACH  FAIR      79  69  71 SE9       30.08S                  
PEMBROKE PINES FAIR      78  66  66 SE10      30.09R                  
OPA LOCKA      FAIR      79  65  62 SE14      30.08S                  
MIAMI          FAIR      78  70  76 SE10      30.08R                  
WEST KENDALL   FAIR      79  68  69 SE12      30.07S                  
HOMESTEAD      FAIR      78  69  73 E8        30.06S                  

STATION/POSITION SKY/WX   TEMP    WIND        PRES    WAVE   SWELL
                          AIR SEA DIR/SP/G            HT/PER HT/PER
                          (F)     (DEG/KT/KT) (MB)    (FT/S) (FT/S)
PORT EVERGLADES            78     130/  7/  9 1018.5
VIRGINIA KEY               79 79  120/  7/ 11 1017.9R
LAKE WORTH                    78  150/ 12/ 14 1019.7S
FOWEY ROCKS                78 78  130/ 12/ 13 1019.1R
SETTLEMENT POINT           77     120/  8/ 11 1019.5S

$$